Regional Weather Roundup
Issued by NWS

Home | Current Version | Previous Version | Text Only | Print | Product List | Glossary Off
Versions: 1 2 3 4 5 6 7 8 9 10 11 12 13 14 15 16 17 18 19 20 21 22 23 24 25 26 27 28 29 30 31 32 33 34 35 36 37 38 39 40 41 42 43 44 45 46 47 48 49 50

000
ASUS44 KMEG 261200
RWRTN
TENNESSEE HOURLY STATE WEATHER ROUNDUP
NATIONAL WEATHER SERVICE MEMPHIS TN
700 AM CDT WED APR 26 2017

TNZ002-004-019-021-049-052-054-088>092-261300-
WEST TENNESSEE

CITY           SKY/WX    TMP DP  RH WIND       PRES   REMARKS
MEMPHIS INTL   CLOUDY    65  59  81 S12       29.67R
NWS MEMPHIS      N/A     64 N/A N/A MISG        N/A
JACKSON        MOCLDY    63  58  83 S10         N/A
DYERSBURG      PTCLDY    64  57  78 S7        29.66R
PARIS          CLEAR     61  54  77 S9        29.69R
$$

TNZ008-025-027-028-033-062-065-066-261300-
NORTH MIDDLE TENNESSEE

CITY           SKY/WX    TMP DP  RH WIND       PRES   REMARKS
NASHVILLE      MOSUNNY   57  55  93 S6        29.76R
CLARKSVILLE    SUNNY     60  55  83 S5        29.71R
SMYRNA         SUNNY     57  55  93 S5        29.78R
CROSSVILLE     SUNNY     54  52  93 CALM      29.83R
$$

TNZ061-075-076-078-094-096-097-261300-
SOUTH MIDDLE TENNESSEE

CITY           SKY/WX    TMP DP  RH WIND       PRES   REMARKS
TULLAHOMA      SUNNY     54  52  94 CALM      29.81R
WINCHESTER     SUNNY     59  55  88 CALM      29.81R
MCMINNVILLE    SUNNY     54  54 100 CALM      29.80R
COLUMBIA       SUNNY    N/A N/A N/A CALM      29.74S
SHELBYVILLE    SUNNY     57  57 100 SE3       29.79R
$$

TNZ017-018-042-046-047-261300-
NORTHEAST TENNESSEE

CITY           SKY/WX    TMP DP  RH WIND       PRES   REMARKS
TRI CITIES     FOG       52  52 100 CALM      29.86R VSB 1/16
$$

TNZ012-013-036-069-073-074-261300-
CENTRAL EAST TENNESSEE

CITY           SKY/WX    TMP DP  RH WIND       PRES   REMARKS
KNOXVILLE      MOSUNNY   56  53  90 NE3       29.83R
OAK RIDGE      FOG       53  51  93 CALM      29.84R VSB 1/4
GATLINBURG     MOSUNNY   48  48 100 CALM      29.84R
$$

TNZ083-085-099-261300-
SOUTHEAST TENNESSEE

CITY           SKY/WX    TMP DP  RH WIND       PRES   REMARKS
CHATTANOOGA    MOSUNNY   58  55  90 CALM      29.83R
$$

SKY/WX REPORTED AS FAIR MEANS FEW OR NO CLOUDS BELOW
12 THOUSAND FEET.





USA.gov is the U.S. government's official web portal to all federal, state and local government web resources and services.